TimeMDT,TemperatureF,Dew PointF,Humidity,Sea Level PressureIn,VisibilityMPH,Wind Direction,Wind SpeedMPH,Gust SpeedMPH,PrecipitationIn,Events,Conditions,WindDirDegrees,DateUTC
12:15 AM,33.8,17.6,52,29.98,10.0,Calm,Calm,-,N/A,,Clear,0,2012-10-09 06:15:00
12:35 AM,33.8,26.6,75,29.99,10.0,Calm,Calm,-,N/A,,Clear,0,2012-10-09 06:35:00
12:55 AM,32.0,17.6,55,29.99,10.0,Calm,Calm,-,N/A,,Clear,0,2012-10-09 06:55:00
1:15 AM,32.0,19.4,60,29.99,10.0,Calm,Calm,-,N/A,,Clear,0,2012-10-09 07:15:00
1:55 AM,30.2,17.6,60,30.00,10.0,Calm,Calm,-,N/A,,Clear,0,2012-10-09 07:55:00
2:15 AM,32.0,19.4,60,30.01,10.0,Calm,Calm,-,N/A,,Clear,0,2012-10-09 08:15:00
2:35 AM,30.2,19.4,64,30.01,10.0,Calm,Calm,-,N/A,,Clear,0,2012-10-09 08:35:00
2:55 AM,30.2,19.4,64,30.02,10.0,Calm,Calm,-,N/A,,Clear,0,2012-10-09 08:55:00
3:15 AM,28.4,19.4,69,30.02,10.0,Calm,Calm,-,N/A,,Clear,0,2012-10-09 09:15:00
3:35 AM,28.4,17.6,64,30.02,10.0,Calm,Calm,-,N/A,,Clear,0,2012-10-09 09:35:00
3:55 AM,26.6,15.8,64,30.03,10.0,Calm,Calm,-,N/A,,Clear,0,2012-10-09 09:55:00
4:15 AM,28.4,19.4,69,30.04,10.0,Calm,Calm,-,N/A,,Clear,0,2012-10-09 10:15:00
4:35 AM,26.6,17.6,69,30.05,10.0,Calm,Calm,-,N/A,,Clear,0,2012-10-09 10:35:00
4:55 AM,28.4,17.6,64,30.05,10.0,Calm,Calm,-,N/A,,Clear,0,2012-10-09 10:55:00
5:15 AM,26.6,17.6,69,30.06,10.0,Calm,Calm,-,N/A,,Clear,0,2012-10-09 11:15:00
5:55 AM,26.6,17.6,69,30.07,10.0,Calm,Calm,-,N/A,,Clear,0,2012-10-09 11:55:00
6:15 AM,26.6,17.6,69,30.08,10.0,SSE,3.5,-,N/A,,Clear,150,2012-10-09 12:15:00
6:55 AM,26.6,17.6,69,30.09,10.0,Calm,Calm,-,N/A,,Clear,0,2012-10-09 12:55:00
7:15 AM,26.6,19.4,74,30.09,10.0,Calm,Calm,-,N/A,,Clear,0,2012-10-09 13:15:00
7:35 AM,24.8,15.8,69,30.10,10.0,Calm,Calm,-,N/A,,Clear,0,2012-10-09 13:35:00
7:55 AM,24.8,15.8,69,30.11,10.0,Calm,Calm,-,N/A,,Clear,0,2012-10-09 13:55:00
8:35 AM,26.6,19.4,74,30.13,10.0,Calm,Calm,-,N/A,,Clear,0,2012-10-09 14:35:00
8:55 AM,28.4,21.2,74,30.13,9.0,Calm,Calm,-,N/A,,Clear,0,2012-10-09 14:55:00
9:15 AM,30.2,23.0,75,30.14,9.0,Calm,Calm,-,N/A,,Clear,0,2012-10-09 15:15:00
9:35 AM,32.0,23.0,69,30.14,8.0,Calm,Calm,-,N/A,,Clear,0,2012-10-09 15:35:00
10:15 AM,35.6,21.2,56,30.14,9.0,Calm,Calm,-,N/A,,Clear,0,2012-10-09 16:15:00
10:35 AM,39.2,24.8,56,30.14,9.0,Calm,Calm,-,N/A,,Clear,0,2012-10-09 16:35:00
10:55 AM,41.0,23.0,49,30.14,9.0,Calm,Calm,-,N/A,,Clear,0,2012-10-09 16:55:00
11:15 AM,42.8,24.8,49,30.13,9.0,Calm,Calm,-,N/A,,Clear,0,2012-10-09 17:15:00
11:55 AM,46.4,23.0,40,30.11,10.0,Calm,Calm,-,N/A,,Clear,0,2012-10-09 17:55:00
12:15 PM,48.2,24.8,40,30.10,9.0,Calm,Calm,-,N/A,,Clear,0,2012-10-09 18:15:00
12:35 PM,51.8,24.8,35,30.10,9.0,Calm,Calm,-,N/A,,Clear,0,2012-10-09 18:35:00
1:15 PM,53.6,26.6,35,30.08,8.0,Calm,Calm,-,N/A,,Clear,0,2012-10-09 19:15:00
1:35 PM,55.4,24.8,31,30.07,8.0,Calm,Calm,-,N/A,,Clear,0,2012-10-09 19:35:00
1:55 PM,57.2,26.6,31,30.06,9.0,Calm,Calm,-,N/A,,Clear,0,2012-10-09 19:55:00
2:15 PM,57.2,26.6,31,30.05,10.0,WNW,3.5,-,N/A,,Clear,300,2012-10-09 20:15:00
2:35 PM,59.0,28.4,31,30.04,10.0,SW,3.5,-,N/A,,Clear,220,2012-10-09 20:35:00
2:55 PM,60.8,28.4,29,30.03,10.0,Calm,Calm,-,N/A,,Clear,0,2012-10-09 20:55:00
3:55 PM,62.6,28.4,27,30.02,10.0,Calm,Calm,-,N/A,,Clear,0,2012-10-09 21:55:00
4:15 PM,62.6,28.4,27,30.01,10.0,Calm,Calm,-,N/A,,Clear,0,2012-10-09 22:15:00
4:35 PM,64.4,28.4,26,30.00,10.0,Calm,Calm,-,N/A,,Clear,0,2012-10-09 22:35:00
4:55 PM,64.4,30.2,28,30.00,10.0,Calm,Calm,-,N/A,,Clear,0,2012-10-09 22:55:00
5:15 PM,64.4,32.0,30,29.99,10.0,SSW,3.5,-,N/A,,Clear,210,2012-10-09 23:15:00
5:35 PM,64.4,33.8,32,29.99,10.0,SSW,3.5,-,N/A,,Clear,210,2012-10-09 23:35:00
5:55 PM,64.4,30.2,28,29.99,10.0,Calm,Calm,-,N/A,,Clear,0,2012-10-09 23:55:00
6:15 PM,62.6,30.2,30,29.99,10.0,Calm,Calm,-,N/A,,Clear,0,2012-10-10 00:15:00
6:35 PM,62.6,28.4,27,29.99,10.0,Calm,Calm,-,N/A,,Clear,0,2012-10-10 00:35:00
6:55 PM,57.2,30.2,36,29.99,10.0,Calm,Calm,-,N/A,,Clear,0,2012-10-10 00:55:00
7:15 PM,53.6,28.4,38,30.00,9.0,SSE,4.6,-,N/A,,Clear,160,2012-10-10 01:15:00
7:35 PM,53.6,26.6,35,30.00,10.0,Calm,Calm,-,N/A,,Clear,0,2012-10-10 01:35:00
7:55 PM,51.8,24.8,35,30.00,9.0,SSE,4.6,-,N/A,,Clear,160,2012-10-10 01:55:00
8:15 PM,51.8,26.6,38,30.01,5.0,SSE,3.5,-,N/A,,Clear,150,2012-10-10 02:15:00
8:35 PM,48.2,26.6,43,30.02,9.0,Calm,Calm,-,N/A,,Clear,0,2012-10-10 02:35:00
8:55 PM,46.4,26.6,46,30.03,10.0,Calm,Calm,-,N/A,,Clear,0,2012-10-10 02:55:00
9:15 PM,44.6,26.6,49,30.03,10.0,Calm,Calm,-,N/A,,Clear,0,2012-10-10 03:15:00
9:35 PM,44.6,28.4,53,30.04,10.0,Calm,Calm,-,N/A,,Clear,0,2012-10-10 03:35:00
9:55 PM,44.6,26.6,49,30.04,10.0,Calm,Calm,-,N/A,,Clear,0,2012-10-10 03:55:00
10:15 PM,39.2,24.8,56,30.05,10.0,Calm,Calm,-,N/A,,Clear,0,2012-10-10 04:15:00
10:35 PM,39.2,26.6,61,30.05,10.0,Calm,Calm,-,N/A,,Clear,0,2012-10-10 04:35:00
10:55 PM,39.2,23.0,52,30.05,10.0,Calm,Calm,-,N/A,,Clear,0,2012-10-10 04:55:00
11:15 PM,37.4,26.6,65,30.06,10.0,Calm,Calm,-,N/A,,Clear,0,2012-10-10 05:15:00
11:55 PM,35.6,24.8,65,30.06,7.0,Calm,Calm,-,N/A,,Clear,0,2012-10-10 05:55:00